Location: Anaheim Mobile Home Estates
(33.8153°N, 117.9967°W)
Time: 02:09:04
(UTC+00:00)

Envisat - Visible Passes

Search period start: 06 October 2024 00:00
Search period end: 16 October 2024 00:00
Orbit: 762 x 764 km, 98.3° (Epoch: 05 October)

Date Brightness Start Highest point End Pass type
(mag) Time Alt. Az. Time Alt. Az. Time Alt. Az.
06 Oct 5.4 10:58:20 10° NNE 10:59:07 15° NNE 10:59:07 15° NNE visible
07 Oct 5.2 12:00:49 10° NNW 12:01:13 12° NNW 12:01:13 12° NNW visible
08 Oct 5.3 11:22:29 10° N 11:23:10 14° N 11:23:10 14° N visible
09 Oct 5.7 10:44:55 10° NNE 10:45:07 11° NNE 10:45:07 11° NNE visible
10 Oct 5.3 11:46:55 10° NNW 11:47:11 11° NNW 11:47:11 11° NNW visible
11 Oct 5.6 11:08:53 10° N 11:09:08 11° N 11:09:08 11° N visible
13 Oct 5.5 11:33:07 10° N 11:33:08 10° N 11:33:08 10° N visible
